AUR889P LFRD-EGJB

Flight info

Callsign AUR889P
Flight time 0h 19m
Altitude 6000
Route OYSTA
Aircraft AT76/M-SDFGIRY/S

Departure

Time 2026-04-21 12:15
Airport Dinard Pleurtuit Saint-Malo airport (LFRD)

Arrival

Time 2026-04-21 12:34
Airport Guernsey Airport (EGJB)
Time Latitude Longitude Altitude Speed Heading
2026-04-21 12:03 48.59045 -2.07745 226 ft 0 kts 239°
2026-04-21 12:10 48.59024 -2.07781 226 ft 8 kts 206°
2026-04-21 12:11 48.58955 -2.07770 226 ft 11 kts 172°
2026-04-21 12:11 48.58918 -2.07807 227 ft 0 kts 260°
2026-04-21 12:11 48.58916 -2.07820 226 ft 8 kts 258°
2026-04-21 12:11 48.58883 -2.07990 225 ft 23 kts 224°
2026-04-21 12:12 48.58734 -2.07985 226 ft 22 kts 171°
2026-04-21 12:12 48.58585 -2.07947 228 ft 21 kts 171°
2026-04-21 12:12 48.58445 -2.07910 227 ft 20 kts 170°
2026-04-21 12:12 48.58306 -2.07873 227 ft 21 kts 170°
2026-04-21 12:13 48.58161 -2.07835 224 ft 21 kts 171°
2026-04-21 12:13 48.58016 -2.07796 224 ft 19 kts 169°
2026-04-21 12:13 48.57915 -2.07764 225 ft 10 kts 151°
2026-04-21 12:13 48.57881 -2.07733 223 ft 3 kts 214°
2026-04-21 12:14 48.57885 -2.07760 223 ft 1 kts 321°
2026-04-21 12:14 48.57901 -2.07766 223 ft 3 kts 350°
2026-04-21 12:14 48.57904 -2.07767 224 ft 0 kts 351°
2026-04-21 12:14 48.57920 -2.07770 224 ft 19 kts 352°
2026-04-21 12:15 48.58338 -2.07881 227 ft 95 kts 350°
2026-04-21 12:15 48.59100 -2.08102 588 ft 118 kts 353°
2026-04-21 12:15 48.59925 -2.08422 1311 ft 128 kts 351°
2026-04-21 12:15 48.60776 -2.08874 1928 ft 138 kts 348°
2026-04-21 12:16 48.61719 -2.09589 2304 ft 165 kts 338°
2026-04-21 12:16 48.62765 -2.10534 2755 ft 181 kts 335°
2026-04-21 12:16 48.63859 -2.11542 3324 ft 187 kts 335°
2026-04-21 12:16 48.64983 -2.12576 3884 ft 190 kts 335°
2026-04-21 12:17 48.66119 -2.13611 4472 ft 191 kts 335°
2026-04-21 12:17 48.67261 -2.14641 5078 ft 191 kts 335°
2026-04-21 12:17 48.68414 -2.15670 5642 ft 191 kts 334°
2026-04-21 12:17 48.69624 -2.16708 5906 ft 209 kts 335°
2026-04-21 12:18 48.70948 -2.17825 6048 ft 228 kts 336°
2026-04-21 12:18 48.72362 -2.19031 6094 ft 243 kts 334°
2026-04-21 12:18 48.73872 -2.20345 6123 ft 256 kts 335°
2026-04-21 12:18 48.75435 -2.21726 6130 ft 263 kts 333°
2026-04-21 12:19 48.77037 -2.23119 6139 ft 267 kts 334°
2026-04-21 12:19 48.78647 -2.24561 6143 ft 270 kts 333°
2026-04-21 12:19 48.80279 -2.25992 6144 ft 271 kts 334°
2026-04-21 12:19 48.81914 -2.27443 6144 ft 273 kts 333°
2026-04-21 12:20 48.83553 -2.28889 6147 ft 273 kts 334°
2026-04-21 12:20 48.85173 -2.30330 6154 ft 273 kts 335°
2026-04-21 12:20 48.86823 -2.31778 6155 ft 274 kts 333°
2026-04-21 12:20 48.88476 -2.33223 6158 ft 274 kts 335°
2026-04-21 12:21 48.90132 -2.34657 6160 ft 274 kts 333°
2026-04-21 12:21 48.91781 -2.36127 6159 ft 275 kts 334°
2026-04-21 12:21 48.93428 -2.37601 6156 ft 274 kts 333°
2026-04-21 12:21 48.95071 -2.39085 6157 ft 275 kts 334°
2026-04-21 12:22 48.96720 -2.40554 6158 ft 274 kts 333°
2026-04-21 12:22 48.98373 -2.41996 6163 ft 274 kts 335°
2026-04-21 12:22 49.00003 -2.43404 6164 ft 275 kts 335°
2026-04-21 12:22 49.01494 -2.44722 6160 ft 274 kts 335°
2026-04-21 12:23 49.03145 -2.46181 6161 ft 274 kts 333°
2026-04-21 12:23 49.04795 -2.47648 6157 ft 274 kts 334°
2026-04-21 12:23 49.06442 -2.49142 6156 ft 275 kts 334°
2026-04-21 12:23 49.08068 -2.50586 6159 ft 273 kts 335°
2026-04-21 12:24 49.09707 -2.52058 6162 ft 272 kts 333°
2026-04-21 12:24 49.11344 -2.53505 6168 ft 272 kts 335°
2026-04-21 12:24 49.12971 -2.54973 6166 ft 272 kts 334°
2026-04-21 12:24 49.14602 -2.56454 6171 ft 273 kts 334°
2026-04-21 12:25 49.16232 -2.57961 6162 ft 274 kts 333°
2026-04-21 12:25 49.17867 -2.59448 6165 ft 273 kts 333°
2026-04-21 12:25 49.19501 -2.60925 6167 ft 269 kts 333°
2026-04-21 12:25 49.21032 -2.62301 5988 ft 251 kts 333°
2026-04-21 12:26 49.22516 -2.63636 5700 ft 244 kts 334°
2026-04-21 12:26 49.23949 -2.64971 5421 ft 238 kts 335°
2026-04-21 12:26 49.25357 -2.66282 5148 ft 236 kts 335°
2026-04-21 12:26 49.26762 -2.67565 4861 ft 234 kts 335°
2026-04-21 12:27 49.28168 -2.68815 4573 ft 233 kts 337°
2026-04-21 12:27 49.29562 -2.70064 4289 ft 232 kts 335°
2026-04-21 12:27 49.30951 -2.71310 4004 ft 232 kts 336°
2026-04-21 12:27 49.32333 -2.72576 3723 ft 231 kts 336°
2026-04-21 12:28 49.33708 -2.73844 3440 ft 230 kts 336°
2026-04-21 12:28 49.35074 -2.75107 3172 ft 228 kts 336°
2026-04-21 12:28 49.36431 -2.76356 2923 ft 226 kts 336°
2026-04-21 12:28 49.37758 -2.77589 2663 ft 226 kts 336°
2026-04-21 12:29 49.39075 -2.78829 2398 ft 214 kts 339°
2026-04-21 12:29 49.40415 -2.79310 2170 ft 187 kts 13°
2026-04-21 12:29 49.41591 -2.78837 2073 ft 165 kts 34°
2026-04-21 12:29 49.42411 -2.77783 2041 ft 146 kts 60°
2026-04-21 12:30 49.42705 -2.76397 2039 ft 130 kts 80°
2026-04-21 12:30 49.42873 -2.75082 2015 ft 119 kts 81°
2026-04-21 12:30 49.43001 -2.73957 2016 ft 94 kts 81°
2026-04-21 12:30 49.43096 -2.73031 1871 ft 81 kts 82°
2026-04-21 12:31 49.43168 -2.72224 1773 ft 77 kts 83°
2026-04-21 12:31 49.43203 -2.71394 1664 ft 78 kts 85°
2026-04-21 12:31 49.43218 -2.70552 1552 ft 79 kts 86°
2026-04-21 12:31 49.43230 -2.69701 1453 ft 81 kts 85°
2026-04-21 12:32 49.43254 -2.68830 1337 ft 81 kts 85°
2026-04-21 12:32 49.43282 -2.67932 1217 ft 85 kts 85°
2026-04-21 12:32 49.43296 -2.67035 1075 ft 82 kts 85°
2026-04-21 12:32 49.43329 -2.66134 1006 ft 86 kts 83°
2026-04-21 12:33 49.43354 -2.65259 833 ft 77 kts 81°
2026-04-21 12:33 49.43393 -2.64399 719 ft 88 kts 84°
2026-04-21 12:33 49.43411 -2.63484 653 ft 84 kts 84°
2026-04-21 12:33 49.43434 -2.62558 506 ft 88 kts 86°
2026-04-21 12:34 49.43457 -2.61636 386 ft 82 kts 79°
2026-04-21 12:34 49.43481 -2.60831 307 ft 64 kts 87°
2026-04-21 12:34 49.43493 -2.60320 307 ft 33 kts 87°
2026-04-21 12:34 49.43500 -2.60067 312 ft 17 kts 87°
2026-04-21 12:35 49.43504 -2.59914 318 ft 12 kts 96°
2026-04-21 12:35 49.43440 -2.59861 321 ft 13 kts 177°
2026-04-21 12:35 49.43367 -2.59857 321 ft 9 kts 186°
2026-04-21 12:35 49.43343 -2.59927 315 ft 8 kts 268°
2026-04-21 12:36 49.43324 -2.59972 314 ft 7 kts 187°
2026-04-21 12:36 49.43288 -2.59969 314 ft 5 kts 176°
2026-04-21 12:36 49.43265 -2.59975 314 ft 3 kts 198°
2026-04-21 12:36 49.43263 -2.59977 314 ft 0 kts 204°
2026-04-21 12:40 49.43261 -2.59979 314 ft 1 kts 206°
2026-04-21 12:40 49.43256 -2.59983 313 ft 1 kts 206°
2026-04-21 12:41 49.43251 -2.59986 312 ft 1 kts 206°
2026-04-21 12:41 49.43246 -2.59990 313 ft 1 kts 206°
2026-04-21 12:41 49.43243 -2.59997 313 ft 1 kts 245°
2026-04-21 12:41 49.43243 -2.60005 313 ft 1 kts 266°
2026-04-21 12:42 49.43243 -2.60013 313 ft 1 kts 267°
2026-04-21 12:42 49.43243 -2.60022 313 ft 1 kts 267°
2026-04-21 12:42 49.43243 -2.60030 314 ft 1 kts 267°
2026-04-21 12:42 49.43242 -2.60038 314 ft 1 kts 267°
2026-04-21 12:43 49.43242 -2.60042 314 ft 0 kts 267°
2026-04-21 12:43 49.43242 -2.60044 314 ft 0 kts 267°